Location: Dreilärchen
(47.9312°N, 8.6113°E)
Time: 08:11:01
(UTC+00:00)

SL-16 R/B - Visible Passes

Search period start: 06 October 2022 00:00
Search period end: 16 October 2022 00:00
Orbit: 985 x 1006 km, 99.6° (Epoch: 06 October)

Date Brightness Start Highest point End Pass type
(mag) Time Alt. Az. Time Alt. Az. Time Alt. Az.
06 Oct 4.5 00:37:18 22° N 00:37:18 22° N 00:39:34 10° N visible
06 Oct 4.6 02:22:24 13° NNW 02:22:24 13° NNW 02:23:08 10° NNW visible
06 Oct 5.0 23:23:37 14° NNE 23:23:37 14° NNE 23:25:22 10° NNE visible
07 Oct 4.5 01:08:42 21° N 01:08:42 21° N 01:10:35 10° NNW visible
07 Oct 4.8 23:55:01 18° NNE 23:55:01 18° NNE 23:56:59 10° N visible
08 Oct 4.6 01:40:06 17° NNW 01:40:06 17° NNW 01:41:26 10° NNW visible
09 Oct 4.7 00:26:25 19° N 00:26:25 19° N 00:28:16 10° N visible
09 Oct 4.7 02:11:31 13° NNW 02:11:31 13° NNW 02:12:05 10° NNW visible
09 Oct 5.2 23:12:43 12° NNE 23:12:43 12° NNE 23:13:42 10° NNE visible
10 Oct 4.7 00:57:49 18° N 00:57:49 18° N 00:59:21 10° N visible
10 Oct 5.0 23:44:07 15° NNE 23:44:07 15° NNE 23:45:34 10° N visible
11 Oct 4.7 01:29:13 16° NNW 01:29:13 16° NNW 01:30:16 10° NNW visible
12 Oct 4.9 00:15:32 16° N 00:15:32 16° N 00:16:57 10° N visible
12 Oct 4.8 02:00:38 12° NNW 02:00:38 12° NNW 02:00:59 10° NNW visible
13 Oct 4.9 00:46:56 16° N 00:46:56 16° N 00:48:06 10° N visible
13 Oct 5.2 23:33:14 13° NNE 23:33:14 13° NNE 23:34:05 10° NNE visible
14 Oct 4.9 01:18:20 14° NNW 01:18:20 14° NNW 01:19:04 10° NNW visible
14 Oct 5.4 17:18:17 10° NW 17:18:41 10° NW 17:19:05 10° NW visible
15 Oct 5.1 00:04:38 14° N 00:04:38 14° N 00:05:35 10° N visible
15 Oct 5.0 01:49:44 11° NNW 01:49:44 11° NNW 01:49:51 10° NNW visible
